User: anonymous   Login
Location: Caltech
(34.1382°N, 118.1253°W)
Time: 04:44:15
(UTC-07:00)
Language:

Meteor 1-11 Rocket - Orbit

View from above orbital plane
View from above orbital plane
View from above satellite
View from above satellite

Ground track
Ground track

The orbit data is extracted from the following two-line orbital elements,

1 05918U 72022B   15146.05949642  .00000199  00000-0  11288-3 0  9994
2 05918 081.2360 334.4037 0057861 283.1627 076.3089 14.05769772212179
Epoch (UTC): 26 May 2015 01:25:40
Eccentricity: 0.0057861
inclination: 81.2360°
perigee height: 832 km
apogee height: 916 km
right ascension of ascending node: 334.4037°
argument of perigee: 283.1627°
revolutions per day: 14.05769772
mean anomaly at epoch: 76.3089°
orbit number at epoch: 21217

The dashed part of the orbit path shows where the satellite is in the earth's shadow,  

DLR